格洛纳斯-756 COSMOS 2204 [GLONASS]

导读 | 星芒AI

COSMOS 2204 是一颗俄罗斯 GLONASS 卫星,于1993年发射,用于全球导航卫星系统。该卫星运行在中地球轨道,提供高精度定位和导航服务。作为 GLONASS 系统的一部分,它支持俄罗斯及国际用户的军事和民用需求。由于其发射较早,COSMOS 2204 已逐渐被更新的 GLONASS 卫星所取代,但仍可能在轨道上作为备用或测试用途。该卫星的运行状态和轨道数据常被用于空间监测和研究。

基本信息
目录编号:
22057
目录名称:
COSMOS 2204 (GLONASS)
国际标识:
1992-047B
轨道中心:
EARTH
卫星名称:
格洛纳斯-756
卫星全名:
格洛纳斯-756 COSMOS 2204 [GLONASS]
卫星状态:
在轨 (已飞行12147 天)
发射日期:
1992-07-30 UTC
国别 :
俄罗斯(独联体) (CIS)
星等 :
--
轨道信息
数据来源 国际轨道数据
星历时间: 2025-10-29T11:07:35+0800
3天前
查看轨道信息
半长轴: 25507.953km
偏心率: 0.0015729
轨道倾角: 64.312°
近地点辐角 338.006°
升交点赤经 310.442°
平近点角 19.523°
近地点: 19089.696km
远地点: 19169.94km
周期: 675.730分钟
每日圈数: 2.131029
详细信息
平衡模式:
三轴稳定
覆盖范围:
全球
运营商:
列舍特涅夫卫星信息系统
运营商所在国:
俄罗斯
制造商(研发单位):
列舍特涅夫卫星信息系统
制造商所在国:
俄罗斯
使用方式:
暂无
卫星简介
格洛纳斯(GLONASS )是苏联/俄罗斯研制卫星导航系统。标准配置为24颗卫星,其中18颗卫星就能保证该系统为俄罗斯境内用户提供全部服务。该卫星已退役。
2D轨道图
3D轨道图
轨道高度分析图
轨道倾角分析图
轨道综合分析图
查看轨道综合分析图